sat.trackr.live / text

‹ back to catalog

FENGYUN 3B

NORAD 37214 · 2010-059A

PAYLOAD ACTIVE UNKNOWN

§ Identity

Operator
Country
PRC
Launch date
2010-11-04
Launch site
TAISC
Launch vehicle
Mass (kg)
RCS (m²)
6.21

Purposes: earth_obs

External: N2YO · Heavens-Above · Gunter

§ Orbital elements

Epoch: 2026-09-04T05:30:03.159936Z

Period
101.78 min
Inclination
98.9551°
Eccentricity
0.0021463
Mean motion
14.14854524 rev/d
Perigee alt
827.3 km
Apogee alt
858.3 km
Semi-major
7,220.9 km
B*
-6.3803e-5
RAAN
293.5526°
Arg perigee
325.2143°
Mean anomaly
115.3906°
Rev number
81,860

§ Raw data

FENGYUN 3B1 37214U 10059A   26247.22920324 -.00000169  00000+0 -63803-4 0  99982 37214  98.9551 293.5526 0021463 325.2143 115.3906 14.14854524818600

JSON: /api/v1/satellites/37214 · /tle

For live sub-satellite position, see the globe view (requires WebGL).

§ Visibility from observer

Set your observer location to see the next 7 days of passes ≥ 10°. The values pass through the URL so the page stays shareable.

No JS? Fill the form by hand. The geolocation button needs JavaScript.

§ Radio — SatNOGS DB

ModeDescriptionDownlinkUplink
QPSK Mode X 8.146 GHz
AHRPT AHRPT Downlink (inactive) 1.705 GHz
BPSK Telemetry (inactive) 2.246 GHz

3 transmitters · refreshed weekly from db.satnogs.org